BAW12 WSSS-EGLL

Flight info

Callsign BAW12
Flight time N/A
Altitude 30000
Route AROSO5B AROSO Y513 KALIL Y501 RINBA Y503 VPL/N0508F320 P628 ASOPO/N0501F340 P628 RK G202 ZB L750 RANAH B449 ZAMIR/N0483F360 B449 ETRAP B447 KRS B143 TUNEK A909 RODAR M11 REBLO UM11 CRM UL746 ODERO/N0473F380 DCT OPT DCT SOKRU DCT BEGLA DCT DEXIT DCT INBED DCT BOMBI DCT ADKUV DCT SOGRI DCT DENUT L608 LOGAN LOGAN2H
Aircraft B77W/H-SDE1E2E3FGHIJ2J3J4J5M1RWXY/LB1D1

Departure

Time 2026-05-08 03:11
Airport Singapore Changi Airport (WSSS)

Arrival

Time N/A
Airport London Heathrow Airport (EGLL)
Time Latitude Longitude Altitude Speed Heading
2026-05-08 02:31 1.36436 103.99062 35 ft 0 kts 292°
2026-05-08 03:02 1.36434 103.99066 35 ft 3 kts 292°
2026-05-08 03:02 1.36424 103.99090 33 ft 4 kts 292°
2026-05-08 03:02 1.36415 103.99113 33 ft 4 kts 298°
2026-05-08 03:02 1.36399 103.99128 33 ft 4 kts 359°
2026-05-08 03:03 1.36373 103.99123 31 ft 4 kts 22°
2026-05-08 03:03 1.36361 103.99117 32 ft 1 kts 22°
2026-05-08 03:03 1.36360 103.99117 32 ft 0 kts 22°
2026-05-08 03:06 1.36368 103.99120 32 ft 3 kts 22°
2026-05-08 03:06 1.36412 103.99139 33 ft 10 kts 26°
2026-05-08 03:07 1.36474 103.99197 35 ft 15 kts 51°
2026-05-08 03:07 1.36542 103.99285 35 ft 16 kts 53°
2026-05-08 03:07 1.36589 103.99363 35 ft 12 kts 81°
2026-05-08 03:07 1.36562 103.99445 35 ft 12 kts 113°
2026-05-08 03:08 1.36528 103.99525 35 ft 12 kts 113°
2026-05-08 03:08 1.36493 103.99604 35 ft 12 kts 112°
2026-05-08 03:08 1.36460 103.99685 35 ft 12 kts 112°
2026-05-08 03:08 1.36426 103.99765 35 ft 12 kts 112°
2026-05-08 03:09 1.36389 103.99843 35 ft 12 kts 126°
2026-05-08 03:09 1.36312 103.99878 35 ft 12 kts 169°
2026-05-08 03:09 1.36239 103.99888 35 ft 10 kts 172°
2026-05-08 03:09 1.36181 103.99889 35 ft 8 kts 192°
2026-05-08 03:10 1.36102 103.99859 35 ft 23 kts 202°
2026-05-08 03:10 1.35763 103.99715 35 ft 88 kts 202°
2026-05-08 03:10 1.34993 103.99390 35 ft 151 kts 202°
2026-05-08 03:10 1.33861 103.98915 47 ft 197 kts 201°
2026-05-08 03:11 1.32608 103.98381 512 ft 197 kts 201°
2026-05-08 03:11 1.31325 103.97851 916 ft 201 kts 210°
2026-05-08 03:11 1.30115 103.97125 1222 ft 210 kts 203°
2026-05-08 03:11 1.28680 103.96637 1364 ft 228 kts 199°
2026-05-08 03:12 1.27137 103.96031 1514 ft 247 kts 203°
2026-05-08 03:12 1.25524 103.95343 1933 ft 256 kts 204°
2026-05-08 03:12 1.23805 103.94863 2375 ft 262 kts 178°
2026-05-08 03:12 1.22062 103.95362 2855 ft 265 kts 147°
2026-05-08 03:13 1.20605 103.96517 3325 ft 272 kts 141°
2026-05-08 03:13 1.19134 103.97784 3734 ft 284 kts 140°
2026-05-08 03:13 1.17647 103.99086 4289 ft 290 kts 137°
2026-05-08 03:13 1.16484 104.00751 4825 ft 299 kts 110°
2026-05-08 03:14 1.16226 104.02812 5467 ft 304 kts 82°
2026-05-08 03:14 1.16949 104.04793 6130 ft 307 kts 56°
2026-05-08 03:14 1.18254 104.06486 6654 ft 311 kts 51°
2026-05-08 03:14 1.19657 104.08146 7211 ft 312 kts 42°
2026-05-08 03:15 1.21530 104.09217 7698 ft 316 kts 12°
2026-05-08 03:15 1.23704 104.09212 8285 ft 316 kts 342°
2026-05-08 03:15 1.25663 104.08245 8867 ft 315 kts 326°
2026-05-08 03:15 1.27575 104.07107 9319 ft 323 kts 333°
2026-05-08 03:16 1.29633 104.06238 9884 ft 323 kts 337°
2026-05-08 03:16 1.31720 104.05398 10379 ft 329 kts 339°
2026-05-08 03:16 1.33937 104.04609 10460 ft 347 kts 341°
2026-05-08 03:16 1.36269 104.03785 10593 ft 365 kts 341°
2026-05-08 03:17 1.38746 104.03013 10841 ft 379 kts 343°
2026-05-08 03:17 1.41281 104.02275 11283 ft 388 kts 344°
2026-05-08 03:17 1.43894 104.01570 11706 ft 389 kts 345°
2026-05-08 03:17 1.46503 104.00798 12080 ft 395 kts 342°
2026-05-08 03:18 1.49117 103.99907 12678 ft 398 kts 342°
2026-05-08 03:18 1.51741 103.99011 13403 ft 398 kts 342°
2026-05-08 03:18 1.54370 103.98108 14023 ft 401 kts 342°
2026-05-08 03:18 1.57028 103.97217 14508 ft 405 kts 343°
2026-05-08 03:19 1.59723 103.96334 15032 ft 409 kts 343°
2026-05-08 03:19 1.62448 103.95452 15527 ft 413 kts 343°
2026-05-08 03:19 1.65200 103.94565 16032 ft 416 kts 343°
2026-05-08 03:19 1.67968 103.93671 16507 ft 420 kts 343°
2026-05-08 03:20 1.70754 103.92769 16987 ft 423 kts 343°
2026-05-08 03:20 1.73487 103.91746 17378 ft 428 kts 334°
2026-05-08 03:20 1.76021 103.90144 17763 ft 434 kts 322°
2026-05-08 03:20 1.78205 103.88041 18233 ft 438 kts 310°
2026-05-08 03:21 1.80057 103.85621 18586 ft 441 kts 307°
2026-05-08 03:21 1.81899 103.83150 18941 ft 445 kts 308°
2026-05-08 03:21 1.83767 103.80669 19335 ft 448 kts 308°
2026-05-08 03:21 1.85663 103.78186 19756 ft 450 kts 308°
2026-05-08 03:22 1.87581 103.75698 20148 ft 453 kts 309°
2026-05-08 03:22 1.89519 103.73193 20543 ft 456 kts 309°
2026-05-08 03:22 1.91462 103.70678 20927 ft 459 kts 309°
2026-05-08 03:22 1.93390 103.68176 21301 ft 461 kts 309°
2026-05-08 03:23 1.95354 103.65624 21677 ft 464 kts 309°
2026-05-08 03:23 1.97327 103.63059 22045 ft 467 kts 309°
2026-05-08 03:23 1.99318 103.60470 22421 ft 470 kts 309°
2026-05-08 03:23 2.01313 103.57876 22782 ft 472 kts 309°
2026-05-08 03:24 2.03324 103.55262 23121 ft 475 kts 309°
2026-05-08 03:24 2.05343 103.52637 23458 ft 478 kts 309°
2026-05-08 03:24 2.07377 103.49993 23748 ft 480 kts 309°
2026-05-08 03:24 2.09417 103.47340 24042 ft 483 kts 309°
2026-05-08 03:25 2.11468 103.44670 24333 ft 485 kts 308°
2026-05-08 03:25 2.13343 103.41855 24626 ft 488 kts 301°
2026-05-08 03:25 2.14894 103.38826 24895 ft 491 kts 295°
2026-05-08 03:25 2.16161 103.35642 25157 ft 493 kts 288°
2026-05-08 03:26 2.17138 103.32350 25428 ft 495 kts 287°
2026-05-08 03:26 2.18079 103.29026 25687 ft 498 kts 286°
2026-05-08 03:26 2.19011 103.25730 25941 ft 500 kts 286°
2026-05-08 03:26 2.19969 103.22378 26204 ft 502 kts 287°
2026-05-08 03:27 2.20942 103.19016 26472 ft 504 kts 287°
2026-05-08 03:27 2.21929 103.15643 26726 ft 506 kts 287°
2026-05-08 03:27 2.22924 103.12256 26981 ft 507 kts 287°
2026-05-08 03:27 2.23921 103.08869 27247 ft 509 kts 287°
2026-05-08 03:28 2.24923 103.05462 27501 ft 510 kts 287°
2026-05-08 03:28 2.25926 103.02050 27736 ft 512 kts 287°
2026-05-08 03:28 2.26929 102.98633 27950 ft 514 kts 287°
2026-05-08 03:28 2.27938 102.95196 28142 ft 516 kts 287°
2026-05-08 03:29 2.28949 102.91749 28368 ft 518 kts 287°
2026-05-08 03:29 2.29950 102.88336 28574 ft 519 kts 287°
2026-05-08 03:29 2.30965 102.84870 28768 ft 520 kts 287°
2026-05-08 03:29 2.31973 102.81386 28953 ft 522 kts 287°
2026-05-08 03:30 2.34001 102.74391 29339 ft 524 kts 287°
2026-05-08 03:30 2.36047 102.67403 29849 ft 523 kts 287°
2026-05-08 03:31 2.38099 102.60395 29901 ft 523 kts 287°
2026-05-08 03:32 2.41133 102.50012 29911 ft 520 kts 287°
2026-05-08 03:32 2.43158 102.43075 29913 ft 520 kts 287°
2026-05-08 03:33 2.45389 102.36202 29900 ft 518 kts 296°
2026-05-08 03:33 2.47209 102.33099 29915 ft 516 kts 307°
2026-05-08 03:33 2.49494 102.30339 29915 ft 515 kts 316°
2026-05-08 03:34 2.55100 102.25891 29911 ft 515 kts 325°
2026-05-08 03:34 2.60770 102.21552 29910 ft 517 kts 323°
2026-05-08 03:35 2.66433 102.17085 29905 ft 518 kts 323°
2026-05-08 03:35 2.72096 102.12620 29891 ft 517 kts 323°
2026-05-08 03:36 2.76797 102.08921 29888 ft 516 kts 323°
2026-05-08 03:36 2.82435 102.04489 29889 ft 515 kts 323°
2026-05-08 03:37 2.88073 102.00056 29890 ft 514 kts 323°
2026-05-08 03:37 2.93692 101.95639 29883 ft 513 kts 323°
2026-05-08 03:38 2.99306 101.91222 29895 ft 513 kts 323°
2026-05-08 03:38 3.04883 101.86833 29903 ft 514 kts 323°
2026-05-08 03:39 3.10507 101.82408 29909 ft 515 kts 323°
2026-05-08 03:39 3.16156 101.77963 29908 ft 516 kts 323°
2026-05-08 03:40 3.21803 101.73518 29919 ft 517 kts 323°
2026-05-08 03:40 3.27467 101.69058 29911 ft 517 kts 323°
2026-05-08 03:41 3.33272 101.64825 29912 ft 515 kts 330°
2026-05-08 03:41 3.39656 101.61637 29914 ft 512 kts 339°
2026-05-08 03:42 3.46164 101.58834 29918 ft 513 kts 338°
2026-05-08 03:42 3.52700 101.55973 29913 ft 513 kts 338°
2026-05-08 03:43 3.59235 101.53076 29921 ft 513 kts 338°
2026-05-08 03:43 3.65765 101.50173 29917 ft 513 kts 338°
2026-05-08 03:44 3.72298 101.47273 29917 ft 513 kts 338°
2026-05-08 03:44 3.78827 101.44375 29914 ft 513 kts 338°
2026-05-08 03:45 3.85365 101.41473 29918 ft 513 kts 338°
2026-05-08 03:45 3.91902 101.38567 29920 ft 514 kts 338°
2026-05-08 03:46 3.98441 101.35659 29918 ft 514 kts 338°
2026-05-08 03:46 4.04934 101.32769 29926 ft 514 kts 338°
2026-05-08 03:47 4.12312 101.29485 29918 ft 513 kts 338°
2026-05-08 03:47 4.17736 101.27071 29922 ft 513 kts 338°
2026-05-08 03:48 4.24264 101.24165 29933 ft 513 kts 338°
2026-05-08 03:48 4.30793 101.21257 29915 ft 513 kts 338°
2026-05-08 03:49 4.37313 101.18352 29903 ft 513 kts 338°
2026-05-08 03:49 4.43826 101.15451 29897 ft 512 kts 338°
2026-05-08 03:50 4.50335 101.12551 29883 ft 512 kts 338°
2026-05-08 03:50 4.56848 101.09647 29882 ft 513 kts 338°
2026-05-08 03:51 4.63399 101.06790 29884 ft 513 kts 338°
2026-05-08 03:51 4.69966 101.03984 29899 ft 514 kts 339°
2026-05-08 03:52 4.76538 101.01164 29899 ft 513 kts 338°
2026-05-08 03:52 4.83060 100.98357 29926 ft 513 kts 338°